User: anonymous   Login
Location: Iesi
(43.5167°N, 13.2333°E)
Time: 17:49:01
(UTC+00:00)
Language:

ATLAS 5 CENTAUR R/B - Orbit

View from above orbital plane
View from above orbital plane
View from above satellite
View from above satellite

Ground track
Ground track

The orbit data is extracted from the following two-line orbital elements,

1 31702U 07027B   20288.80226823 0.00000050  00000-0  98512-5 0    08
2 31702  63.3556 275.9265 0419349  16.2521 343.8464 14.18808331    05
Epoch (UTC): 14 October 2020 19:15:15
Eccentricity: 0.0419349
inclination: 63.3556°
perigee height: 527 km
apogee height: 1131 km
right ascension of ascending node: 275.9265°
argument of perigee: 16.2521°
revolutions per day: 14.18808331
mean anomaly at epoch: 343.8464°
orbit number at epoch: 0

The dashed part of the orbit path shows where the satellite is in the earth's shadow,  

DLR